Lander, WY

4:04 PM MST on February 22, 2018 (GMT -0700)
Hunt

Weather History for KLND - June, 2014

Change the Weather History Date:

Wednesday, June 18, 2014

  Actual Average Record
Temperature  
Mean Temperature 52 °F 64 °F  
Max Temperature 64 °F 79 °F 92 °F (1974)
Min Temperature 39 °F 49 °F 29 °F (1895)
Degree Days  
Heating Degree Days 13 3  
Month to date heating degree days 104 99  
Since 1 June heating degree days 104 99  
Since 1 July heating degree days 7688 7721  
Cooling Degree Days 0 2  
Month to date cooling degree days 13 25  
Year to date cooling degree days 31 30  
Since 1 June cooling degree days 13 25  
Moisture  
Dew Point 30 °F    
Average Humidity 60    
Maximum Humidity 100    
Minimum Humidity 20    
Precipitation  
Precipitation 0.00 in 0.03 in 1.22 in (1975)
Month to date precipitation 0.29 0.94  
Year to date precipitation 4.48 7.16  
Snow  
Snow 0.00 in 0.00 in - ()
Month to date snowfall 0.0 0.1  
Since 1 June snowfall 0.0 0.1  
Since 1 July snowfall 75.7 91.4  
Snow Depth 0.00 in    
Sea Level Pressure  
Sea Level Pressure 29.92 in    
Wind  
Wind Speed 9 mph (WSW)    
Max Wind Speed 33 mph    
Max Gust Speed 40 mph    
Visibility 10 miles    
Events      
T = Trace of Precipitation, MM = Missing Value Source: NWS Daily Summary

Daily Weather History Graph

Daily Weather History Graph

Search for Another Location

Airport or City:

Trip Planner

Search our weather history database for the weather conditions in past years. The results will help you decide how hot, cold, wet, or windy it might be!

Date:

Astronomy

Jun. 18, 2014 Rise Set
Actual Time 5:36 AM MDT 8:56 PM MDT
Civil Twilight 5:00 AM MDT 9:31 PM MDT
Nautical Twilight 4:15 AM MDT 10:17 PM MDT
Astronomical Twilight 3:18 AM MDT 11:13 PM MDT
Moon 12:19 AM MDT (6/18) 12:11 PM MDT (6/18)
Length of Visible Light 16h 30m
Length of Day
15h 20m
Waning Gibbous, 62% of the Moon is Illuminated
Jun 18
Waning Gibbous
Jun 19
Last Quarter
Jun 27
New
Jul 5
First Quarter
Jul 12
Full

Hourly Weather History & Observations

Time (MDT) Temp. Windchill Dew Point Humidity Pressure Visibility Wind Dir Wind Speed Gust Speed Precip Events Conditions
12:53 AM 45.0 °F 38.5 °F 35.1 °F 68% 29.83 in 10.0 mi West 13.8 mph - N/A   Clear
1:53 AM 46.0 °F 41.9 °F 30.0 °F 54% 29.82 in 10.0 mi SW 8.1 mph 21.9 mph N/A   Clear
2:53 AM 45.0 °F 40.6 °F 30.9 °F 58% 29.82 in 10.0 mi NW 8.1 mph - N/A   Clear
3:53 AM 41.0 °F 33.5 °F 39.2 °F 93% 29.95 in 10.0 mi NNW 13.8 mph - N/A   Clear
4:06 AM 41.0 °F 33.5 °F 39.9 °F 96% 29.93 in 9.0 mi NW 13.8 mph - N/A   Scattered Clouds
4:53 AM 39.9 °F 34.5 °F 39.0 °F 97% 29.91 in 10.0 mi West 8.1 mph - N/A   Clear
5:53 AM 39.9 °F 35.8 °F 37.9 °F 93% 29.91 in 10.0 mi SE 5.8 mph - N/A   Clear
6:53 AM 41.0 °F 37.1 °F 39.0 °F 93% 29.93 in 7.0 mi ESE 5.8 mph - N/A   Clear
7:53 AM 45.0 °F 40.6 °F 37.9 °F 76% 29.94 in 10.0 mi SE 8.1 mph - N/A   Clear
8:53 AM 48.0 °F - 37.0 °F 66% 29.93 in 10.0 mi East 8.1 mph - N/A   Clear
9:53 AM 52.0 °F - 33.1 °F 49% 29.93 in 10.0 mi East 10.4 mph - N/A   Clear
10:53 AM 53.1 °F - 30.9 °F 43% 29.91 in 10.0 mi East 4.6 mph - N/A   Clear
11:53 AM 55.0 °F - 27.0 °F 34% 29.89 in 10.0 mi Calm Calm - N/A   Clear
12:53 PM 60.1 °F - 21.9 °F 23% 29.87 in 10.0 mi WSW 9.2 mph - N/A   Scattered Clouds
1:53 PM 61.0 °F - 21.0 °F 21% 29.86 in 10.0 mi South 9.2 mph - N/A   Partly Cloudy
2:53 PM 57.9 °F - 19.0 °F 22% 29.87 in 10.0 mi WSW 9.2 mph 19.6 mph N/A   Scattered Clouds
3:53 PM 61.0 °F - 21.9 °F 22% 29.89 in 10.0 mi SSW 17.3 mph 25.3 mph N/A   Clear
4:53 PM 60.1 °F - 19.0 °F 20% 29.90 in 10.0 mi SW 10.4 mph - N/A   Clear
5:37 PM 59.0 °F - 23.0 °F 25% 29.98 in 10.0 mi West 21.9 mph - N/A   Scattered Clouds
5:53 PM 60.1 °F - 23.0 °F 24% 29.91 in 10.0 mi West 10.4 mph 24.2 mph N/A   Partly Cloudy
6:53 PM 50.0 °F - 32.0 °F 50% 29.97 in 10.0 mi WNW 23.0 mph 33.4 mph N/A   Clear
7:18 PM 50.0 °F - 33.1 °F 52% 30.03 in 10.0 mi SSW 20.7 mph 28.8 mph N/A   Clear
7:53 PM 50.0 °F - 30.9 °F 48% 29.95 in 10.0 mi SSW 4.6 mph - N/A   Clear
8:53 PM 52.0 °F - 24.1 °F 34% 29.94 in 10.0 mi West 18.4 mph 26.5 mph N/A   Clear
9:53 PM 50.0 °F - 24.1 °F 36% 29.95 in 10.0 mi West 10.4 mph - N/A   Clear
10:53 PM 48.0 °F - 24.1 °F 39% 29.96 in 10.0 mi NW 4.6 mph - N/A   Clear
11:53 PM 46.0 °F 40.6 °F 24.1 °F 42% 29.95 in 10.0 mi WSW 11.5 mph - N/A   Clear